CZ-3B DEB, 42459

Orbit data source: Space-Track

CZ-3B DEB, 42459 is space debris in HEO originally from a launch on Sat, 04 Sep 2010 UTC launched from the Xichang Space Center, China (XSC). Debris objects in space refer to the collection of defunct objects orbiting the Earth. Examples of debris include non-operational satellites, rocket bodies, and fragments generated from explosions, collisions, or faulty payload assembly.

Loading next visibility...
Identifier
42459, 2010-042AA
Orbit
HEO
Country
Flag of CNCN / PRC
Related business
Manufacturer
CALT
Mission
Spacecraft
Bus & Motor
Unknown
Mass
Unknown
Launch date (UTC)
2010-09-04 (15 years ago)
Launch vehicle
Unknown
Launch site
Xichang Space Center, China (XSC)
Object type
Payload
Rocket body
Debris
Shape & HBR
Unknown shape, 0.1 m
Radar Cross Section
Medium (>0.1 m² and <1 m²)

Expand to show TLE details & history
Last TLE update: 2 days ago

TLE from 2 days ago
0 CZ-3B DEB
1 42459U 10042AA  25348.27017871 -.00000056  00000-0  00000-0 0  9998
2 42459  27.6444 339.5886 7263598 209.1861  75.6701  1.87025942 75176
Epoch: 2025-12-14T06:29Z
TLE epoch observation values (Epoch: 2025-12-14T06:29:03.440Z)
Latitude
-0.00014°
Longitude
159.11432°
Altitude
29,527.31 km
Speed
2.807 km/s
True Right ascension
22h 38m 15s
True Declination
0° 00' 00"
Sunlit
Object was in daylight at epoch
Visualization orbit readout
Latitude
Unknown
Longitude
Unknown
Altitude
Unknown
Speed
Unknown
Apparent Right ascension
Unknown
Apparent Declination
Unknown
Sunlit
N/A
Visualization observer readout
Local Sidereal Time
19:01:29
Azimuth
Unknown
Elevation
Unknown
Doppler factor
Unknown
Orbital elements
Apogee altitude
41,667.103 km
Perigee altitude
1,237.372 km
Semi-major axis
27,830.375 km
Eccentricity
0.72636
Inclination
27.6444°
RAAN
339.5886°
Arg. of periapsis
209.1861°
True anomaly
150.87998°
Mean anomaly
75.6701°
Eccentric anomaly
113.76001°
Mean motion
0.46748 °/min
Orbital period
770.08 mins
BSTAR
0
Loading maneuver chart data...
Computing Atmospheric mass density...
Loading historical data...
Loading historical data...
Loading historical data...
Loading historical data...
Loading historical data...
Loading historical data...
Loading historical data...

Documentation

Showing up to 5 results
|